Raid DOUVAN JOU 17km le 18/09/2016

Recherche par Dossard : par Nom : par Club :

Place Dossard Nom Prenom Cat. Pl. Cat. Temps Club Sexe
1 476 BALLEYDIER ROMAIN SE 1 01:20:00 33e RIMA M
2 365 TRAMMA Fred V2 1 01:24:28 M
3 444 FAVRE Francki SE 2 01:24:46 a c saleen M
4 527 MELIS Dimitri V1 1 01:25:03 Athlétique Club du Marin M
5 445 HILDERALD Isnard V2 2 01:25:59 SAMARITAINE TEAM TRAIL/RENOVATION M
6 451 NICOLAS Philippe V1 2 01:26:31 MIRSA LOISIRS M
7 379 BELLEMARE Bruno V1 3 01:27:00 M
8 528 GROSSIN Jeremie SE 3 01:28:18 353 TRIATHLON CLUB M
9 464 DESHAGETTE MANUEL V1 4 01:28:28 M
10 448 MELLOT Michel V2 3 01:28:45 M
11 450 CORIOLA Wilfrid SE 4 01:29:53 MIRSA LOISIRS M
12 400 SAUVAGNAC Xavier V2 4 01:32:00 M
13 388 AUSTER Xavier V1 5 01:32:19 Tchimbe raid M
14 420 DEGRAS Alain V1 6 01:33:17 M
15 361 COUTY Eric V1 7 01:33:26 M
16 390 PUNU Augustave SE 5 01:33:44 RSMAM M
17 392 BERNARD Patrick SE 6 01:34:08 M
18 360 ABDOU SOUFFOU Djouma SE 7 01:34:34 RSMAM M
19 523 CARTERON LUCIEN V2 5 01:34:55 GOLDEN M
20 475 LIN GUY ALBERT V2 6 01:35:21 TCHIMBE RAID M
21 531 ATALA Jean-michel V1 8 01:35:39 M
22 483 KHALI Sebastien SE 8 01:35:45 M
23 429 RONDEAUX David SE 9 01:35:55 Team Babilon M
24 456 DINTIMILLE Enald V1 9 01:36:14 NEANT M
25 484 BADIE LEVET Nathalie V1 1 01:36:25 GOLDEN STAR F
26 468 ARRONDELL OLIVIER V1 10 01:37:16 MAIRIE SPORTIVE M
27 442 LAMANDE Steve V2 7 01:37:34 Club Tchimbé Raid M
28 487 RAKOTOARINOSY Roby V1 11 01:37:46 M
29 382 MARCENY Frederic V1 12 01:37:48 M
30 474 JOACHIM RENE-GEORGES V3 1 01:38:29 M
31 395 GEORGEON Laure SE 1 01:38:30 MAIRIE SPORTIVE F
32 514 GROMAT DANIEL V2 8 01:38:35 MAIRIE SPORTIVE M
33 508 BUREAU PIERRE SE 10 01:38:54 M
34 473 ROUBLIQUE ELISABETH V1 2 01:39:01 TCHIMBE RAID F
35 479 PROFICHET ARNAUD SE 11 01:39:38 33e RIMA M
36 421 LOUIS JOSEPH Alain V2 9 01:40:28 cgosh M
37 409 ELANA Sabrina SE 2 01:40:40 Mairie sportive F
38 355 TESSIER Lilian SE 12 01:40:41 RSMAM M
39 543 OZIER LAFONTAINE DAVID V1 13 01:41:06 AMCF M
40 385 DACY Steeve SE 13 01:41:12 KAWANN TRIATHLON CLUB M
41 438 PASTEL Gaetane SE 3 01:41:24 mairie sportive F
42 477 CHASSERIAU ROMEO SE 14 01:41:25 33e RIMA M
43 498 BIGOT THIERRY V2 10 01:41:29 M
44 373 SAGE Remi V1 14 01:42:19 AIGLON DU LAMENTIN M
45 515 SURIC JEAN PHILIPPE V1 15 01:43:00 AMCF M
46 402 MEDDOUR Salah V1 16 01:43:32 33 rima M
47 364 LEVY Gabriel V1 17 01:44:04 M
48 496 ARMEDE RODDY V1 18 01:44:43 TCHIMBE RAID M
49 394 EUGENIA Jean Pierre V2 11 01:44:47 Mairie Sportive M
50 418 ADOLPHE Claude V1 19 01:44:51 M
51 535 ERICHER Eddy V1 20 01:46:02 M
52 452 HONORE Thierry SE 15 01:46:18 CTR M
53 471 BOYAVAL JEAN PHILIPPE V1 21 01:46:18 M
54 411 FEMENIA Sophie V1 3 01:46:41 F
55 544 MARIE ANGELIQUE RODRIGUE V1 22 01:46:43 AIGLON M
56 507 SEGABIOT JEAN PASCAL SE 16 01:46:55 KAWANN M
57 389 CHIGNAGUET David SE 17 01:46:57 M
58 403 MANERE Fabrice V1 23 01:47:07 M
59 354 PERFINI Maurice V1 24 01:47:16 tchimbe raid M
60 526 MEHAL LIONEL V1 25 01:47:23 FR Morne pitault M
61 478 ROCHON KEVIN SE 18 01:47:24 33e RIMA M
62 446 TOSELLI Joris SE 19 01:47:51 M
63 437 SCHOLASTIQUE Jean-christophe SE 20 01:48:35 M
64 504 AOUN JEAN PIERRE SE 21 01:49:14 M
65 440 PAGNIEZ Samuel SE 22 01:49:29 M
66 439 FOTI Frederic SE 23 01:49:30 M
67 465 NAGOU LIONEL V1 26 01:50:27 M
68 441 ARMEDE Jean-claude V3 2 01:50:34 M
69 447 PESCHOUX Alexis SE 24 01:50:49 M
70 549 BARDIN Appoline ES 1 01:50:49 F
71 408 RONOT Rodolphe SE 25 01:51:04 M
72 435 JULLIA Fabien SE 26 01:51:08 Team Babilon M
73 466 ANGLIONIN GILDAS V1 27 01:51:37 M
74 540 MAIHI Breyn SE 27 01:52:28 M
75 459 MACROIX Jacques SE 28 01:52:32 M
76 397 MAYAUD Sylvain V2 12 01:52:55 cgos M
77 542 GOUNOUMAN CLAUDE V3 3 01:53:08 AMCF M
78 492 CHARPENTIER LOUIS V2 13 01:53:10 MAIRIE SPO M
79 396 DELPEU Vincent V1 28 01:53:12 M
80 376 TECHI Andre Theodore V1 29 01:53:43 Tchimbé Raid M
81 436 SOUFFLET Jeremie SE 29 01:53:52 M
82 410 BOYAVAL Nathalie V1 4 01:53:59 Manikou F
83 501 BUSSON SYLVAIN SE 30 01:54:00 M
84 374 RESIDANT Didier V1 30 01:54:07 M
85 532 GORVIEN Gilles V1 31 01:54:10 M
86 352 ROSE Raymond V2 14 01:54:51 CGOSH M
87 539 LEBELLEGARD Gladys SE 4 01:54:58 F
88 541 CHARISSOU Lise SE 5 01:55:09 F
89 419 HENRY Laurent V2 15 01:55:22 MANIKOU M
90 432 LE COQ Gael V1 32 01:55:24 M
91 480 GERMANY FREDERIC V1 33 01:55:39 CLUB MANIKOU M
92 510 BERING HENRI V1 34 01:56:16 AMCF M
93 500 LARCHER DAVID V1 35 01:56:16 M
94 358 LEGLAND Benoit SE 31 01:56:26 Club Manikou M
95 506 RISKWAIT MAX V1 36 01:57:41 M
96 516 PIMPY JEAN ALBERT V1 37 01:57:45 AMCF M
97 511 BARRO ERIC V2 16 01:57:58 AMCF M
98 491 LE SAUX REGIS V1 38 01:57:58 M
99 547 GRAPINDOR BRUNO V2 17 01:58:28 M
100 490 ROUX Sebastien V1 39 01:59:09 M
101 366 CURFS Hubert V3 4 01:59:20 tchimbé raid M
102 424 CADO Christophe V1 40 01:59:25 M
103 482 LAMBOURG Marion SE 6 01:59:43 F
104 533 REEMAN Prisca SE 7 02:00:00 F
105 381 GROUGEARD Christophe V1 41 02:00:37 M
106 430 CAVALADE Quentin SE 32 02:01:03 M
107 434 ?DOSSARD #434 SE 33 02:01:38 M
108 469 GIGON-DESORMERIE LAURENT JU 1 02:02:13 M
109 425 BRIEU Julien V1 42 02:03:11 M
110 413 HOULLIER Tonny V1 43 02:03:27 M
111 377 BAUDIN Frederic-gilles SE 34 02:03:52 M
112 399 ROMAN Benjamin SE 35 02:03:58 M
113 550 RAVIN Kathy SE 8 02:04:04 F
114 458 GUMBS Thierry V1 44 02:04:15 M
115 454 GAZET Nathalie V1 5 02:04:32 F
116 407 CERTAIN Jacques V2 18 02:04:40 M
117 455 PEDROT Gaetan SE 36 02:05:06 M
118 351 LANSADE Alexandre SE 37 02:06:04 SAM HORIZON 2000 M
119 538 RONDY Julien SE 38 02:06:19 M
120 505 AMOUSSOU CORALIE V2 1 02:06:29 F
121 470 ARCADE JEAN PHILIPPE V2 19 02:06:57 M
122 537 NELA Nazaire V1 45 02:08:19 M
123 415 MARIE JOSEPH Christian SE 39 02:08:19 M
124 460 YANG-TING Jean-louis V2 20 02:08:20 M
125 433 BARON Xenio V3 5 02:08:21 M
126 457 JUEN Matthieu SE 40 02:08:21 M
127 525 MORVILLE Jean-louis V1 46 02:08:30 M
128 472 EMONIDE Michel V2 21 02:08:56 Club Tchimbé Raid M
129 391 EDMOND Sandra SE 9 02:09:15 F
130 378 FILIN Jasmine SE 10 02:09:20 F
131 367 DJA Pierre SE 41 02:09:29 M
132 380 DEBREUVE Xavier V2 22 02:09:34 M
133 453 LORENZINI Philippe V3 6 02:10:16 M
134 383 POTIER David V1 47 02:10:25 M
135 357 HONORE Yann V1 48 02:11:08 Tchimbe raid - CARAĎB MOTER M
136 463 BALLAND MARC V2 23 02:11:24 AMCF M
137 427 JULIENO Charles V2 24 02:11:44 tchimbe raid M
138 495 RAGOT ERIC V1 49 02:12:49 M
139 387 QUARANTA Pierre V1 50 02:13:07 M
140 356 MANUEL Lucie V1 6 02:13:48 F
141 503 VERNIER FAUSTINE SE 11 02:14:26 F
142 502 STEUNOU MATHILDE V1 7 02:14:26 F
143 546 LOUIS FERDINAND RAYMOND V1 51 02:15:05 M
144 493 LOUISON JEAN MICHEL V1 52 02:17:33 M
145 521 CHAMALY PATRICE V2 25 02:18:10 M
146 489 ROUX Florence SE 12 02:19:45 F
147 386 BLAND Christophe V1 53 02:19:51 M
148 449 DEWULF Herve V1 54 02:19:51 M
149 488 RAYMOND Guillaume SE 42 02:20:45 pass running M
150 461 PIGET PHILIPPE V3 7 02:20:49 AMCF M
151 384 ZAMY Sonia V2 2 02:21:01 MAIRIE SPORTIVE F
152 443 DE LAGUARIGUE Celine V1 8 02:22:10 manikou F
153 406 TOUCHAIN Erwan SE 43 02:22:29 M
154 431 DALY Kathlen V1 9 02:22:40 MANIKOU F
155 353 FONTEAU Yda SE 13 02:23:18 F
156 368 BAZILLIO Pascal V1 55 02:24:16 M
157 534 ERICHER Marilyne V1 10 02:24:25 F
158 422 CAZENAVE Gilles SE 14 02:24:34 Prodrone 360 F
159 462 LOUISY LOIC SE 44 02:25:18 AMCF M
160 485 BESSIERES David V1 56 02:26:03 TEAM INTERSPORT M
161 522 TOUSSINE ROLANDE V1 11 02:26:11 F
162 423 CLOE Jean Louis V1 57 02:30:04 M
163 499 DORION GERARD V3 8 02:30:28 CLUB MANIKOU M
164 404 AMBROISINE Jean-loic V1 58 02:31:17 M
165 412 KNIFIC Jean Jacques V1 59 02:34:05 M
166 467 MOTY JEAN LOUIS SE 45 02:35:03 M
167 371 CHARPENTIER-TITY Georges-louis V1 60 02:35:42 M
168 497 BAC MICKAEL SE 46 02:35:50 M
169 428 PIGNOL Jerome SE 47 02:36:04 tchimbe raid M
170 530 MALBRANQUE Sandrine SE 15 02:37:30 F
171 529 HODE Coralie SE 16 02:37:50 F
172 536 BERTE Valerie V1 12 02:38:47 F
173 416 SCHREINER Denis V2 26 02:46:47 M
174 512 AOUN AGATHE SE 17 02:49:23 F
175 513 COUSSIEU NICOLAS V1 61 02:49:23 M
176 414 LERIDER Myriam V1 13 02:55:17 F
177 548 CAPGRAS DANIEL V2 27 03:00:36 M
178 518 ZAPHA GERARD SE 48 03:06:00 M
179 517 VERT-PRE FELIX V3 9 03:06:01 M
180 520 CALCUL ROMAIN VERONIQUE SE 18 03:06:01 F
181 519 CANTAL NATHALIE SE 19 03:06:01 F